Regional Weather Roundup
Issued by NWS

Home | Current Version | Previous Version | Graphics & Text | Print | Product List | Glossary Off
Versions: 1 2 3 4 5 6 7 8 9 10 11 12 13 14 15 16 17 18 19 20 21 22 23 24 25 26 27 28 29 30 31 32 33 34 35 36 37 38 39 40 41 42 43 44 45 46 47 48 49 50

000
ASUS43 KTOP 200508
RWRKS

WEATHER ROUNDUP FOR KANSAS
NATIONAL WEATHER SERVICE GOODLAND KS
1200 AM CDT SUN AUG 20 2017

NOTE:  "FAIR" INDICATES FEW OR NO CLOUDS BELOW 12,000 FEET WITH NO
SIGNIFICANT WEATHER AND/OR OBSTRUCTIONS TO VISIBILITY.

KSZ001>006-013>018-027>032-041>047-200600-
NORTHWEST KANSAS

CITY           SKY/WX    TMP DP  RH WIND       PRES   REMARKS
GOODLAND       CLEAR     75  51  43 SW13      29.95S
HAYS           PTCLDY    80  66  62 S12       29.89S
HILL CITY      CLEAR     81  63  54 SW9       29.87S
RUSSELL        PTCLDY    81  68  64 S14       29.88R
$$

KSZ061>065-074>080-084>089-200600-
SOUTHWEST KANSAS

CITY           SKY/WX    TMP DP  RH WIND       PRES   REMARKS
DODGE CITY     CLEAR     79  62  56 S13       29.96R
ELKHART          N/A     70  61  73 S9          N/A
GARDEN CITY    MOCLDY    77  63  61 S13       29.96R
GREAT BEND     CLEAR     80  67  64 S10       29.91S
LIBERAL        CLEAR     73  67  81 S10       29.98S
PRATT          CLEAR     80  64  58 S9        29.94S
$$

KSZ066>073-081>083-090>101-200600-
SOUTHEAST KANSAS

CITY           SKY/WX    TMP DP  RH WIND       PRES   REMARKS
CHANUTE        CLEAR     80  76  87 SE6       29.95S
COFFEYVILLE    CLOUDY    82  76  81 S7        29.94R
HUTCHINSON     CLEAR     76  66  71 SE5       29.91S
MEDICINE LODGE   N/A     80  69  69 S10       29.92R
NEWTON         CLEAR     76  72  87 SE10      29.94R
PARSONS        PTCLDY    82  75  79 SE3       29.96S
WICHITA INTL   PTCLDY    78  71  79 SE7       29.92R
WICHITA JABRA  PTCLDY    79  74  84 S9        29.93R
WICHITA MCCONL CLEAR     80  71  73 S8        29.93R
WINFIELD       CLOUDY    81  75  82 S9        29.94S
$$

KSZ007>012-019>026-033>040-048>060-102>105-200600-
NORTHEAST KANSAS

CITY           SKY/WX    TMP DP  RH WIND       PRES   REMARKS
CONCORDIA      CLEAR     80  70  71 S16       29.86F
EMPORIA        CLEAR     79  74  84 SE9       29.93S
LAWRENCE       CLEAR     75  74  96 SE7       29.91F
MANHATTAN      CLEAR     81  75  82 S12       29.88F
MARYSVILLE     CLEAR     81  73  78 S12G17    29.88S
OLATHE IND     CLEAR     77  74  90 S8        29.95F
OLATHE EXE     CLEAR     75  74  96 S7        29.95F
SALINA         CLEAR     81  65  58 S10       29.89R
TOPEKA BILLARD CLEAR     82  76  81 S12       29.90F
TOPEKA FORBES  CLEAR     81  77  88 SE9       29.92F
$$




USA.gov is the U.S. government's official web portal to all federal, state and local government web resources and services.